Tracking 35237 objects as of 6-Sep-2026
HD Live streaming from Space Station
objects crossing your sky now

SHIYAN 32-01

Track SHIYAN 32-01 now!
10-day predictions


NORAD ID: 66376
Int'l Code: 2025-255A
Launch date: November 8, 2025
Source: People's Republic of China (PRC)
Launch site: Jiuquan Satellite Launch Center, China (JSC)
Your satellite tracking list
Your tracking list is empty




NASA's NSSDC Master Catalog

Two Line Element Set (TLE):
1 66376U 25255A   26249.48603859  .00017236  00000-0  25598-3 0  9994
2 66376  52.9936 333.2586 0008816 174.5372 185.5735 15.55291610 46858
Source of the keplerian elements: AFSPC